[[{"header":{"parameterUnit":"m.s-1","parameterCategory":1,"la1":30.2991,"la2":30.254,"lo1":-89.0895,"lo2":-89.0444,"dy":0.0017,"dx":0.0017,"nx":28,"ny":28,"refTime":"2024-05-09T09:00:00:Z","depth":0,"parameterNumber":2,"parameterNumberName":"U-component_of_WINDS"},"data":[0,0,0,0,0,0,0,0,0,0,0,0,0,0,0,0,0,0,0,0,0,0,0,0,0,0,0,0,0,0,0,0,0,0,0,0,0,0,0,0,0,0,0,0,0,0,0,0,0,0,0,0,0,0,0,0,0,0,-3.0048,-3.0048,0,-3.0038,-3.0038,-3.0038,-2.999,-2.9989,-2.9988,-2.9987,-2.9978,-2.9979,-2.9979,0,0,0,0,0,0,0,0,0,0,0,0,0,-3.0026,-3.0027,-3.0048,-3.0048,-3.0048,-3.0038,-3.0038,-3.0038,-2.9991,-2.9989,-2.9988,-2.9986,-2.9978,-2.9979,-2.998,0,0,0,0,0,0,0,0,0,0,0,0,0,-3.0028,-3.0027,-3.0048,-3.0023,-3.002,-3.0038,-3.0038,-3.0038,-2.9991,-2.9989,-2.9987,-2.9986,-2.9977,-2.9978,-2.998,-3.0021,0,0,-2.9983,-2.9984,0,0,0,0,0,0,0,0,-3.0028,-3.0029,-3.0027,-3.0024,-3.0022,-3.0014,-3.0027,-3.0033,-2.9991,-3.0002,-2.9987,-2.9985,-2.9991,-2.9991,-2.9993,-3.0021,-3.002,-2.9983,-2.9984,-2.9985,-2.9985,0,0,0,0,0,0,0,-3.0028,-3.0029,-3.0044,-3.0027,-3.0024,-3.0012,-3.0011,-3.0028,-3.0006,-3.0001,-2.9997,-2.9997,-2.999,-2.9992,-2.9993,-3.002,-2.9983,-2.9985,-2.9985,-2.9986,-3.0083,-3.0084,0,0,0,0,0,0,-3.0031,-3.0029,-3.0044,-3.0044,-3.0021,-3.0014,-3.0012,-3.0018,-3.0006,-3.0003,-2.9999,-2.9995,-2.9991,-2.9991,-2.9992,-3.004,-2.9985,-2.9986,-2.9987,-3.0081,-3.0083,-3.0085,0,0,0,0,0,0,-3.0031,-3.0033,-3.0045,-3.0036,-3.0036,-3.0016,-3.0023,-3.0019,-3.0021,-3.0004,-3.0,-3.0005,-2.999,-2.999,-3.0015,-3.0039,-2.9986,-2.9988,-3.0079,-3.0081,-3.0084,-3.0136,0,0,0,0,0,0,-3.003,-3.0033,-3.0048,-3.0036,-3.0037,-3.0067,-3.0025,-3.002,-3.0023,-3.0019,-3.0009,-3.0006,-2.9988,-3.0013,-3.0016,-3.004,-2.9989,-3.0076,-3.008,-3.0083,-3.0132,-3.0141,-3.0148,0,0,0,0,0,-3.003,-3.0063,-3.0049,-3.0051,-3.0055,-3.0068,-3.0069,-3.0048,-3.0026,-3.0041,-3.003,-3.0006,-3.0036,-3.0016,-3.0019,-3.0043,-3.0075,-3.0079,-3.0083,-3.0129,-3.0139,-3.0148,0,0,0,0,0,0,-3.0078,-3.0061,-3.0045,-3.0076,-3.0074,-3.006,-3.0079,-3.0059,-3.0063,-3.0059,-3.0033,-3.0031,-3.0059,-3.0054,-3.0031,-3.0084,-3.0051,-3.0056,-3.0086,-3.0095,-3.0103,-3.0103,-2.999,0,0,0,0,0,-3.0093,-3.0105,-3.0089,-3.0118,-3.0118,-3.0099,-3.0104,-3.0088,-3.0085,-3.0084,-3.0075,-3.0073,-3.0082,-3.0088,-3.0096,-3.0132,-3.0129,-3.0151,-3.0158,-3.0165,-3.0169,-3.0188,-3.0197,-3.0099,-3.0099,-3.0098,0,0,-3.0122,-3.0114,-3.0123,-3.0127,-3.0124,-3.0137,-3.0098,-3.0114,-3.0123,-3.0086,-3.0108,-3.0102,-3.0098,-3.0129,-3.0142,-3.0125,-3.0196,-3.017,-3.0175,-3.0176,-3.0193,-3.0202,-3.0211,-3.0101,-3.0101,-3.01,0,0,-3.0182,-3.0178,-3.0201,-3.0199,-3.0195,-3.0182,-3.0188,-3.0178,-3.0172,-3.0194,-3.0167,-3.0178,-3.0194,-3.0193,-3.0194,-3.0257,-3.0235,-3.026,-3.0299,-3.0318,-3.0326,-3.0333,-3.0355,-3.0363,-3.0264,-3.0265,-3.0265,0,-3.0219,-3.0238,-3.0216,-3.0233,-3.0236,-3.0204,-3.0227,-3.0226,-3.0225,-3.0228,-3.021,-3.023,-3.0225,-3.0255,-3.027,-3.0273,-3.0279,-3.026,-3.0327,-3.0333,-3.0339,-3.036,-3.0368,-3.0268,-3.0267,-3.0267,-3.0267,0,-3.0284,-3.0297,-3.0317,-3.0316,-3.0321,-3.0342,-3.0323,-3.0332,-3.0316,-3.0306,-3.0329,-3.0323,-3.0328,-3.0335,-3.0319,-3.0363,-3.0353,-3.0331,-3.0298,-3.0352,-3.0371,-3.0378,-3.0272,-3.0271,-3.027,-3.0269,0,0,-3.0372,-3.036,-3.0368,-3.0368,-3.0361,-3.0372,-3.0392,-3.0397,-3.0405,-3.0406,-3.0421,-3.0437,-3.0417,-3.0419,-3.0403,-3.042,-3.047,-3.0397,-3.0396,-3.041,-3.0517,-3.0533,-3.0542,-3.0456,-3.0457,-3.0459,-3.0517,0,-3.0429,-3.0462,-3.0443,-3.0478,-3.0491,-3.0461,-3.0479,-3.0477,-3.0469,-3.0478,-3.0469,-3.048,-3.0454,-3.0455,-3.047,-3.0461,-3.0491,-3.0456,-3.047,-3.0471,-3.0471,-3.0552,-3.0568,-3.0624,-3.0525,-3.0526,-3.0527,0,-3.05,-3.0504,-3.054,-3.0533,-3.0537,-3.0553,-3.0557,-3.0567,-3.0565,-3.0558,-3.0561,-3.0542,-3.0561,-3.053,-3.0557,-3.0534,-3.0539,-3.0535,-3.0537,-3.0536,-3.0501,-3.0553,-3.0641,-3.0649,-3.0538,-3.0537,-3.0536,0,-3.056,-3.0575,-3.0599,-3.06,-3.0591,-3.0603,-3.0601,-3.0597,-3.0602,-3.0606,-3.0609,-3.0616,-3.0619,-3.0625,-3.0609,-3.0588,-3.0638,-3.0605,-3.0632,-3.0632,-3.0643,-3.0642,-3.0732,-3.0648,-3.0648,-3.0648,-3.0647,0,-3.0625,-3.0649,-3.0626,-3.064,-3.0666,-3.0646,-3.0672,-3.0666,-3.0663,-3.0677,-3.0652,-3.0665,-3.0643,-3.0654,-3.0642,-3.0666,-3.0668,-3.0662,-3.0658,-3.0664,-3.0664,-3.0666,-3.0661,-3.065,-3.0649,-3.0649,-3.0648,0,-3.0696,-3.0682,-3.0706,-3.0697,-3.0695,-3.0715,-3.0707,-3.072,-3.0711,-3.0728,-3.0731,-3.0716,-3.0728,-3.0713,-3.0723,-3.0715,-3.0747,-3.0738,-3.0748,-3.0745,-3.0773,-3.077,-3.0866,-3.0877,-3.0787,-3.0788,-3.0788,0,-3.0738,-3.0755,-3.0749,-3.0756,-3.0755,-3.0767,-3.0772,-3.0753,-3.0759,-3.0759,-3.0773,-3.0783,-3.079,-3.081,-3.0801,-3.0809,-3.0799,-3.0832,-3.08,-3.0805,-3.0799,-3.0798,-3.0799,-3.0838,-3.0839,-3.084,-3.0841,0,-3.0814,-3.0806,-3.0815,-3.0822,-3.0829,-3.0833,-3.0835,-3.0843,-3.0823,-3.0832,-3.0844,-3.0849,-3.086,-3.087,-3.0876,-3.0874,-3.0854,-3.0852,-3.0858,-3.0863,-3.0868,-3.0865,-3.0765,-3.0849,-3.0848,-3.0848,-3.0847,-3.0847,-3.0871,-3.0886,-3.0883,-3.0894,-3.0894,-3.0897,-3.0909,-3.0902,-3.0912,-3.0919,-3.0908,-3.0923,-3.0922,-3.0927,-3.0927,-3.0939,-3.0925,-3.0934,-3.0937,-3.0939,-3.0943,-3.0867,-3.094,-3.094,-3.094,-3.0939,-3.0939,0,-3.0945,-3.0943,-3.0953,-3.0957,-3.0966,-3.0948,-3.095,-3.0958,-3.0972,-3.0973,-3.098,-3.0994,-3.1005,-3.0997,-3.1005,-3.1016,-3.1008,-3.1019,-3.1017,-3.1017,-3.0956,-3.0949,-3.1026,-3.1026,-3.1026,-3.1026,-3.1026,-3.1026,-3.0985,-3.1008,-3.1001,-3.1025,-3.1022,-3.1036,-3.1039,-3.1042,-3.1043,-3.106,-3.1068,-3.1063,-3.106,-3.1069,-3.1078,-3.1075,-3.1079,-3.1093,-3.1088,-3.103,-3.1022,-3.1013,-3.1007,-3.1095,-3.1095,-3.1148,-3.1149,-3.1149]},{"header":{"parameterUnit":"m.s-1","parameterCategory":1,"la1":30.2991,"la2":30.254,"lo1":-89.0895,"lo2":-89.0444,"dy":0.0017,"dx":0.0017,"nx":28,"ny":28,"refTime":"2024-05-09T09:00:00:Z","depth":0,"parameterNumber":3,"parameterNumberName":"V-component_of_WINDS"},"data":[0,0,0,0,0,0,0,0,0,0,0,0,0,0,0,0,0,0,0,0,0,0,0,0,0,0,0,0,0,0,0,0,0,0,0,0,0,0,0,0,0,0,0,0,0,0,0,0,0,0,0,0,0,0,0,0,0,0,3.7755,3.7756,0,3.7882,3.7883,3.7885,3.7928,3.7928,3.7927,3.7927,3.8054,3.8057,3.8061,0,0,0,0,0,0,0,0,0,0,0,0,0,3.7547,3.755,3.7755,3.7756,3.7758,3.7882,3.7884,3.7885,3.7928,3.7928,3.7927,3.7927,3.8052,3.8057,3.8062,0,0,0,0,0,0,0,0,0,0,0,0,0,3.7652,3.7552,3.7754,3.7794,3.7799,3.7881,3.7884,3.7886,3.7928,3.7928,3.7927,3.7926,3.8051,3.8057,3.8062,3.8113,0,0,3.808,3.8082,0,0,0,0,0,0,0,0,3.7646,3.7659,3.7787,3.7792,3.7797,3.7889,3.7857,3.7962,3.7929,3.7879,3.7927,3.7926,3.7999,3.8009,3.8035,3.8119,3.8124,3.808,3.8084,3.8086,3.8088,0,0,0,0,0,0,0,3.7638,3.7654,3.7805,3.7789,3.7795,3.7805,3.7819,3.7877,3.7942,3.7884,3.7887,3.7902,3.8002,3.8029,3.8038,3.8126,3.808,3.8085,3.8089,3.8091,3.826,3.8261,0,0,0,0,0,0,3.7625,3.7648,3.7801,3.7809,3.7718,3.781,3.7825,3.786,3.7941,3.7953,3.7902,3.7903,3.8019,3.8031,3.8042,3.8109,3.8086,3.8092,3.8095,3.8259,3.826,3.8261,0,0,0,0,0,0,3.762,3.7638,3.7796,3.7729,3.775,3.7814,3.7853,3.7863,3.789,3.7955,3.7967,3.7918,3.8019,3.8034,3.8096,3.8114,3.8094,3.81,3.8258,3.8259,3.8261,3.8241,0,0,0,0,0,0,3.7614,3.7636,3.7657,3.773,3.7754,3.7848,3.7854,3.7866,3.79,3.7903,3.7973,3.7984,3.802,3.8087,3.8101,3.8121,3.8104,3.8257,3.8259,3.826,3.824,3.8241,3.8243,0,0,0,0,0,3.7606,3.7645,3.7657,3.7676,3.7781,3.7849,3.7862,3.7903,3.7902,3.7923,3.7965,3.7982,3.8109,3.8093,3.811,3.8131,3.8256,3.8258,3.826,3.824,3.8241,3.8243,0,0,0,0,0,0,3.7571,3.7655,3.767,3.7733,3.7784,3.7856,3.7884,3.7903,3.7955,3.7955,3.8002,3.8018,3.8076,3.8109,3.809,3.8186,3.8183,3.8189,3.8162,3.8164,3.8165,3.8156,3.8109,0,0,0,0,0,3.757,3.762,3.769,3.7739,3.7764,3.7819,3.785,3.7878,3.7931,3.7952,3.7999,3.805,3.8101,3.8134,3.8185,3.8245,3.8261,3.8268,3.8269,3.827,3.8275,3.831,3.8315,3.8269,3.8269,3.8269,0,0,3.757,3.7622,3.765,3.7733,3.7775,3.7825,3.7837,3.7888,3.7925,3.796,3.8022,3.8057,3.8117,3.8178,3.8208,3.8208,3.8291,3.8273,3.8273,3.8278,3.8313,3.8318,3.8321,3.8271,3.827,3.827,0,0,3.7595,3.7639,3.7685,3.7728,3.7792,3.7829,3.784,3.791,3.7936,3.7999,3.8026,3.807,3.8157,3.82,3.8232,3.8274,3.8292,3.8289,3.8296,3.833,3.8334,3.8337,3.8354,3.8359,3.8293,3.8293,3.8293,0,3.7586,3.7663,3.7706,3.7757,3.7793,3.7828,3.7876,3.7914,3.7992,3.8016,3.8015,3.8127,3.8169,3.8242,3.8252,3.8277,3.8291,3.8282,3.833,3.8334,3.8338,3.8354,3.836,3.8292,3.8293,3.8293,3.8293,0,3.7649,3.7702,3.7731,3.7807,3.7847,3.7895,3.7946,3.798,3.8004,3.8041,3.8105,3.8157,3.822,3.8239,3.8261,3.8315,3.8313,3.832,3.832,3.8341,3.8357,3.8363,3.8291,3.8292,3.8292,3.8292,0,0,3.7656,3.7756,3.7766,3.7802,3.7876,3.7917,3.7967,3.803,3.8059,3.8111,3.8155,3.8228,3.8236,3.8273,3.8301,3.8331,3.8363,3.8335,3.8337,3.834,3.8426,3.8422,3.8428,3.8375,3.8376,3.8377,3.8422,0,3.7692,3.7785,3.7826,3.79,3.795,3.7984,3.8028,3.8078,3.8113,3.816,3.8199,3.8251,3.8257,3.828,3.831,3.8352,3.8381,3.835,3.8417,3.8419,3.8403,3.8437,3.8432,3.8471,3.8428,3.843,3.843,0,3.7746,3.7801,3.788,3.795,3.7972,3.8011,3.8073,3.8117,3.8174,3.8198,3.824,3.8267,3.8321,3.8315,3.839,3.8368,3.8398,3.8422,3.8425,3.8434,3.8427,3.8448,3.8485,3.8491,3.844,3.844,3.8439,0,3.7745,3.7838,3.7898,3.7927,3.8009,3.8036,3.8071,3.8128,3.8164,3.8217,3.8241,3.8299,3.8331,3.8375,3.8417,3.8408,3.8489,3.8486,3.851,3.8509,3.8527,3.8525,3.857,3.8543,3.8543,3.8543,3.8542,0,3.7782,3.783,3.7899,3.7936,3.7991,3.8037,3.809,3.8127,3.8178,3.8222,3.8254,3.8295,3.8347,3.8395,3.8428,3.8486,3.8499,3.852,3.8529,3.8519,3.8516,3.854,3.8539,3.8544,3.8544,3.8544,3.8543,0,3.7791,3.7839,3.7908,3.798,3.8,3.8037,3.8099,3.8136,3.8173,3.8229,3.8245,3.8303,3.8361,3.8407,3.8482,3.8504,3.8566,3.8574,3.8547,3.8552,3.8574,3.8572,3.8638,3.8649,3.8612,3.8612,3.8612,0,3.7813,3.7851,3.7928,3.7961,3.7997,3.8049,3.8086,3.8133,3.817,3.8238,3.8267,3.8328,3.8379,3.847,3.8518,3.8576,3.8587,3.8606,3.8596,3.8585,3.8589,3.8587,3.8592,3.8607,3.8607,3.8607,3.8608,0,3.7846,3.7868,3.7921,3.7983,3.8027,3.8077,3.8128,3.8153,3.8209,3.8249,3.8309,3.8349,3.8426,3.8486,3.8549,3.8584,3.8606,3.861,3.8619,3.861,3.8594,3.8605,3.8552,3.8609,3.8609,3.8609,3.8609,3.8609,3.7863,3.7899,3.796,3.8018,3.8062,3.8109,3.8148,3.8191,3.8242,3.831,3.8334,3.8397,3.8453,3.854,3.8576,3.8626,3.8627,3.864,3.8643,3.8646,3.8646,3.8585,3.8637,3.8637,3.8637,3.8637,3.8637,0,3.79,3.7941,3.7994,3.8065,3.8111,3.8128,3.8185,3.8222,3.8277,3.8329,3.8379,3.8449,3.8508,3.8561,3.8622,3.8651,3.8662,3.8665,3.8664,3.8673,3.864,3.8627,3.8655,3.8655,3.8655,3.8655,3.8655,3.8655,3.7925,3.7987,3.8017,3.8101,3.8142,3.8204,3.8236,3.828,3.8321,3.8399,3.8448,3.8483,3.8535,3.86,3.8655,3.8669,3.869,3.8691,3.8708,3.8677,3.8675,3.8672,3.8661,3.8695,3.8695,3.8737,3.8737,3.8738]}]]